Regional Weather Roundup
Issued by NWS Newport/Morehead, NC

Current Version | Previous Version | Graphics & Text | Print | Product List | Glossary Off
Versions: 1 2 3 4 5 6 7 8 9 10 11 12 13 14 15 16 17 18 19 20 21 22 23 24 25 26 27 28 29 30 31 32 33 34 35 36 37 38 39 40 41 42 43 44 45 46 47 48 49 50
117 ASUS42 KMHX 060113 RWRMHX WEATHER ROUNDUP FOR EASTERN NORTH CAROLINA NATIONAL WEATHER SERVICE NEWPORT/MOREHEAD CITY NC 800 PM EST FRI FEB 05 2016 NOTE: "FAIR" INDICATES FEW OR NO CLOUDS BELOW 12,000 FEET WITH NO SIGNIFICANT WEATHER AND/OR OBSTRUCTIONS TO VISIBILITY NCZ015>017-031-032-045>047-102-103-060200- NORTH COAST CITY SKY/WX TMP DP RH WIND PRES REMARKS EDENTON CLEAR 35 32 92 CALM 30.38R ELIZABETH CITY CLEAR 37 28 70 NW5 30.38R KITTY HAWK CLEAR 39 29 67 N5 30.35S MANTEO CLEAR 40 32 72 NE9 30.37R $$ NCZ045>047-081-094-103-104-060200- CENTRAL COAST CITY SKY/WX TMP DP RH WIND PRES REMARKS FRISCO CLEAR 42 30 62 N8G20 30.36R SWANQUARTER N/A 37 N/A N/A CALM 30.36R $$ NCZ095-097-098-100-101-060200- SOUTHERN COAST CITY SKY/WX TMP DP RH WIND PRES REMARKS BEAUFORT CLEAR 38 31 76 NE6 30.37R CEDAR ISLAND N/A 43 N/A N/A N12G18 30.41S JACKSONVILLE CLEAR 41 30 65 N6 30.36S PINEY ISLAND CLEAR N/A N/A N/A N7 30.37R WILMINGTON PTCLDY 40 31 70 NE3 30.36S $$ NCZ011>013-027>030-043-044-078>080-089-090>093-098-060200- COASTAL PLAIN CITY SKY/WX TMP DP RH WIND PRES REMARKS AHOSKIE CLEAR 34 29 82 CALM 30.39R CLINTON CLEAR 37 33 82 CALM 30.38S ELIZABETHTOWN CLEAR 38 31 74 CALM 30.37R GOLDSBORO CLEAR 39 25 56 N5 30.35F GREENVILLE CLEAR 36 32 87 CALM 30.38S HAVELOCK CLEAR 42 29 59 N8 30.38R KENANSVILLE N/A 33 31 94 CALM 30.37F KINSTON CLEAR 34 30 86 CALM 30.38S NEW BERN CLEAR 39 27 62 N6 30.39R RICHLANDS CLEAR 36 28 75 NW3 30.36F ROCKY MOUNT CLEAR 33 29 85 CALM 30.38R WASHINGTON CLEAR 36 31 81 CALM 30.38R WHITEVILLE CLEAR 39 33 80 CALM 30.37R $$ AMZ130-135-150-152-154-156-158-170-250-252-270-ANZ085-086-088-633-658-670-060200- MARINE OBSERVATIONS STATION/POSITION TIME TEMP WIND PRES WAVE SWELL AIR SEA DIR/SP/G HT/PER HT/PER (UTC) (F) (DEG/KT/KT) (MB) (FT/S) (FT/S) CHESAPEAKE LIGHT 0100 41 360/ 20/ 22 1028.1 64 E VA BEACH 0050 44 54 340/ 19/ 25 1026.9 11/10 8/10 DUCK NOT AVBL 2 E DUCK 0011 45 N/A 6/10 2/11 OREGON INLET NOT AVBL 13E OREGON INLT 0100 47 N/A 9/10 3/11 HATTERAS CG NOT AVBL DIAMOND BUOY 0050 71 360/ 21/ 29 1027.3 7/11 5/11 CAPE LOOKOUT NOT AVBL BEAUFORT LAB NOT AVBL 30 SE NEW RVR IN 0008 48 65 1026.6 30 SE NEW RVR IN 0025 65 N/A 4/ 9 2/11 27 SE WRIGHTSVLE 0008 49 360/ 14/ 23 1026.4 5 SE WRIGHTSVLE 0008 47 54 20/ 14/ 17 1027.7 225 S CAPE HAT 0050 58 69 40/ 21/ 25 N/A 13/ 9 41 SE CHARLESTON 0050 51 67 20/ 14/ 19 1027.5 4/ 6 2/ 7 $$

USA.gov is the U.S. government's official web portal to all federal, state and local government web resources and services.